Time,TemperatureF,DewpointF,PressureIn,WindDirection,WindDirectionDegrees,WindSpeedMPH,WindSpeedGustMPH,Humidity,HourlyPrecipIn,Conditions,Clouds,dailyrainin,SoftwareType,DateUTC
2013-02-14 00:01:00,43.4,27.8,29.51,East,90,0.0,0.2,54,0.00,,,0.00,WUHU216HW,2013-02-14 06:01:00,
2013-02-14 00:06:00,43.4,28.3,29.51,ENE,68,0.9,0.9,55,0.00,,,0.00,WUHU216HW,2013-02-14 06:06:00,
2013-02-14 00:11:00,43.4,28.7,29.51,NE,45,0.7,0.9,56,0.00,,,0.00,WUHU216HW,2013-02-14 06:11:00,
2013-02-14 00:16:00,43.2,28.5,29.52,NE,45,1.1,1.3,56,0.00,,,0.00,WUHU216HW,2013-02-14 06:16:00,
2013-02-14 00:21:00,43.2,28.5,29.52,NNE,23,0.4,1.3,56,0.00,,,0.00,WUHU216HW,2013-02-14 06:21:00,
2013-02-14 00:26:00,42.8,28.2,29.52,ENE,68,0.4,1.1,56,0.00,,,0.00,WUHU216HW,2013-02-14 06:26:00,
2013-02-14 00:31:00,42.8,28.2,29.52,East,90,0.4,1.1,56,0.00,,,0.00,WUHU216HW,2013-02-14 06:31:00,
2013-02-14 00:36:00,42.8,28.6,29.52,ENE,68,1.3,1.6,57,0.00,,,0.00,WUHU216HW,2013-02-14 06:36:00,
2013-02-14 00:41:00,42.8,28.6,29.52,ENE,68,1.1,1.8,57,0.00,,,0.00,WUHU216HW,2013-02-14 06:41:00,
2013-02-14 00:46:00,42.7,28.5,29.52,SE,135,0.0,1.8,57,0.00,,,0.00,WUHU216HW,2013-02-14 06:46:00,
2013-02-14 00:51:00,42.7,28.9,29.52,ENE,68,0.4,0.9,58,0.00,,,0.00,WUHU216HW,2013-02-14 06:51:00,
2013-02-14 00:56:00,42.7,28.9,29.51,East,90,0.4,0.4,58,0.00,,,0.00,WUHU216HW,2013-02-14 06:56:00,
2013-02-14 01:01:00,42.7,28.9,29.51,NE,45,0.0,0.7,58,0.00,,,0.00,WUHU216HW,2013-02-14 07:01:00,
2013-02-14 01:06:00,42.8,29.4,29.51,NE,45,0.2,0.7,59,0.00,,,0.00,WUHU216HW,2013-02-14 07:06:00,
2013-02-14 01:11:00,42.8,29.4,29.51,ENE,68,0.0,0.4,59,0.00,,,0.00,WUHU216HW,2013-02-14 07:11:00,
2013-02-14 01:16:00,42.8,29.4,29.51,East,90,0.2,0.4,59,0.00,,,0.00,WUHU216HW,2013-02-14 07:16:00,
2013-02-14 01:21:00,42.7,29.3,29.51,ENE,68,0.2,0.4,59,0.00,,,0.00,WUHU216HW,2013-02-14 07:21:00,
2013-02-14 01:26:00,42.7,29.3,29.52,East,90,0.4,0.4,59,0.00,,,0.00,WUHU216HW,2013-02-14 07:26:00,
2013-02-14 01:31:00,42.5,29.5,29.52,NE,45,0.4,0.4,60,0.00,,,0.00,WUHU216HW,2013-02-14 07:31:00,
2013-02-14 01:36:00,42.5,29.5,29.52,ENE,68,0.0,0.4,60,0.00,,,0.00,WUHU216HW,2013-02-14 07:36:00,
2013-02-14 01:41:00,42.3,29.4,29.52,ENE,68,0.9,1.1,60,0.00,,,0.00,WUHU216HW,2013-02-14 07:41:00,
2013-02-14 01:46:00,42.3,29.8,29.52,NE,45,1.1,1.1,61,0.00,,,0.00,WUHU216HW,2013-02-14 07:46:00,
2013-02-14 01:51:00,42.3,29.8,29.52,East,90,0.4,1.1,61,0.00,,,0.00,WUHU216HW,2013-02-14 07:51:00,
2013-02-14 01:56:00,42.3,29.8,29.52,ESE,113,0.4,0.4,61,0.00,,,0.00,WUHU216HW,2013-02-14 07:56:00,
2013-02-14 02:02:00,42.3,29.8,29.51,East,90,0.2,0.4,61,0.00,,,0.00,WUHU216HW,2013-02-14 08:02:00,
2013-02-14 02:07:00,42.3,29.8,29.51,ENE,68,0.0,0.9,61,0.00,,,0.00,WUHU216HW,2013-02-14 08:07:00,
2013-02-14 02:12:00,42.1,29.6,29.51,ENE,68,0.0,0.9,61,0.00,,,0.00,WUHU216HW,2013-02-14 08:12:00,
2013-02-14 02:17:00,41.9,29.9,29.52,ENE,68,0.0,0.4,62,0.00,,,0.00,WUHU216HW,2013-02-14 08:17:00,
2013-02-14 02:22:00,41.6,29.5,29.51,ESE,113,0.0,0.2,62,0.00,,,0.00,WUHU216HW,2013-02-14 08:22:00,
2013-02-14 02:27:00,41.4,29.7,29.52,North,0,0.0,0.2,63,0.00,,,0.00,WUHU216HW,2013-02-14 08:27:00,
2013-02-14 02:32:00,41.4,29.7,29.51,North,0,0.0,0.0,63,0.00,,,0.00,WUHU216HW,2013-02-14 08:32:00,
2013-02-14 02:37:00,41.4,29.7,29.52,NNW,338,0.0,0.0,63,0.00,,,0.00,WUHU216HW,2013-02-14 08:37:00,
2013-02-14 02:42:00,41.2,29.5,29.51,NW,315,0.0,0.0,63,0.00,,,0.00,WUHU216HW,2013-02-14 08:42:00,
2013-02-14 02:47:00,41.2,29.5,29.51,NW,315,0.0,0.0,63,0.00,,,0.00,WUHU216HW,2013-02-14 08:47:00,
2013-02-14 02:52:00,41.0,29.4,29.51,NNE,23,0.0,0.0,63,0.00,,,0.00,WUHU216HW,2013-02-14 08:52:00,
2013-02-14 02:57:00,41.0,29.8,29.51,NNE,23,0.0,0.0,64,0.00,,,0.00,WUHU216HW,2013-02-14 08:57:00,
2013-02-14 03:02:00,41.0,30.2,29.51,NNE,23,0.0,0.0,65,0.00,,,0.00,WUHU216HW,2013-02-14 09:02:00,
2013-02-14 03:07:00,40.9,30.0,29.51,ESE,113,1.1,1.1,65,0.00,,,0.00,WUHU216HW,2013-02-14 09:07:00,
2013-02-14 03:12:00,40.9,30.0,29.51,ESE,113,1.1,1.1,65,0.00,,,0.00,WUHU216HW,2013-02-14 09:12:00,
2013-02-14 03:17:00,40.7,29.8,29.51,ESE,113,1.1,1.8,65,0.00,,,0.00,WUHU216HW,2013-02-14 09:17:00,
2013-02-14 03:22:00,40.5,29.6,29.50,SE,135,1.6,1.8,65,0.00,,,0.00,WUHU216HW,2013-02-14 09:22:00,
2013-02-14 03:27:00,40.3,29.8,29.50,SE,135,1.1,1.6,66,0.00,,,0.00,WUHU216HW,2013-02-14 09:27:00,
2013-02-14 03:32:00,40.1,29.6,29.50,East,90,0.4,1.3,66,0.00,,,0.00,WUHU216HW,2013-02-14 09:32:00,
2013-02-14 03:37:00,39.8,28.9,29.50,SE,135,0.4,1.1,65,0.00,,,0.00,WUHU216HW,2013-02-14 09:37:00,
2013-02-14 03:42:00,39.2,28.7,29.51,SE,135,0.4,1.1,66,0.00,,,0.00,WUHU216HW,2013-02-14 09:42:00,
2013-02-14 03:47:00,39.1,28.5,29.50,ESE,113,0.4,0.4,66,0.00,,,0.00,WUHU216HW,2013-02-14 09:47:00,
2013-02-14 03:52:00,39.1,28.5,29.50,ESE,113,0.4,0.4,66,0.00,,,0.00,WUHU216HW,2013-02-14 09:52:00,
2013-02-14 03:57:00,39.1,28.5,29.50,East,90,0.4,0.7,66,0.00,,,0.00,WUHU216HW,2013-02-14 09:57:00,
2013-02-14 04:02:00,38.9,28.5,29.50,ESE,113,1.1,1.1,66,0.00,,,0.00,WUHU216HW,2013-02-14 10:02:00,
2013-02-14 04:07:00,38.7,28.6,29.50,ESE,113,0.7,1.6,67,0.00,,,0.00,WUHU216HW,2013-02-14 10:07:00,
2013-02-14 04:12:00,38.5,28.4,29.50,SE,135,1.1,1.6,67,0.00,,,0.00,WUHU216HW,2013-02-14 10:12:00,
2013-02-14 04:17:00,38.5,28.4,29.50,East,90,0.7,1.1,67,0.00,,,0.00,WUHU216HW,2013-02-14 10:17:00,
2013-02-14 04:22:00,38.5,28.4,29.50,ESE,113,0.4,0.9,67,0.00,,,0.00,WUHU216HW,2013-02-14 10:22:00,
2013-02-14 04:27:00,38.5,28.4,29.50,ESE,113,0.9,1.1,67,0.00,,,0.00,WUHU216HW,2013-02-14 10:27:00,
2013-02-14 04:32:00,38.5,28.8,29.50,ESE,113,0.2,1.1,68,0.00,,,0.00,WUHU216HW,2013-02-14 10:32:00,
2013-02-14 04:37:00,38.5,28.8,29.50,SE,135,0.4,1.1,68,0.00,,,0.00,WUHU216HW,2013-02-14 10:37:00,
2013-02-14 04:43:00,38.3,28.7,29.50,ESE,113,1.8,1.8,68,0.00,,,0.00,WUHU216HW,2013-02-14 10:43:00,
2013-02-14 04:48:00,38.0,28.7,29.50,SE,135,1.1,2.0,69,0.00,,,0.00,WUHU216HW,2013-02-14 10:48:00,
2013-02-14 04:53:00,37.6,28.8,29.50,SE,135,0.4,2.0,70,0.00,,,0.00,WUHU216HW,2013-02-14 10:53:00,
2013-02-14 04:58:00,37.4,28.6,29.50,SE,135,1.1,1.3,70,0.00,,,0.00,WUHU216HW,2013-02-14 10:58:00,
2013-02-14 05:03:00,37.3,28.8,29.50,ESE,113,1.8,1.8,71,0.00,,,0.00,WUHU216HW,2013-02-14 11:03:00,
2013-02-14 05:08:00,37.3,28.8,29.50,ESE,113,0.9,1.8,71,0.00,,,0.00,WUHU216HW,2013-02-14 11:08:00,
2013-02-14 05:13:00,37.1,28.6,29.50,ESE,113,1.1,1.6,71,0.00,,,0.00,WUHU216HW,2013-02-14 11:13:00,
2013-02-14 05:18:00,36.9,28.5,29.50,SE,135,0.4,1.6,71,0.00,,,0.00,WUHU216HW,2013-02-14 11:18:00,
2013-02-14 05:23:00,36.9,28.5,29.51,ENE,68,0.4,0.7,71,0.00,,,0.00,WUHU216HW,2013-02-14 11:23:00,
2013-02-14 05:28:00,37.1,28.6,29.51,SE,135,0.4,0.7,71,0.00,,,0.00,WUHU216HW,2013-02-14 11:28:00,
2013-02-14 05:33:00,37.1,28.6,29.50,ESE,113,1.1,1.3,71,0.00,,,0.00,WUHU216HW,2013-02-14 11:33:00,
2013-02-14 05:38:00,37.1,28.9,29.50,ENE,68,1.1,1.8,72,0.00,,,0.00,WUHU216HW,2013-02-14 11:38:00,
2013-02-14 05:43:00,37.1,28.6,29.50,ESE,113,1.8,1.8,71,0.00,,,0.00,WUHU216HW,2013-02-14 11:43:00,
2013-02-14 05:48:00,36.9,28.7,29.51,SE,135,0.9,1.8,72,0.00,,,0.00,WUHU216HW,2013-02-14 11:48:00,
2013-02-14 05:53:00,36.7,28.5,29.51,ESE,113,1.6,1.6,72,0.00,,,0.00,WUHU216HW,2013-02-14 11:53:00,
2013-02-14 05:58:00,36.5,28.4,29.51,SE,135,1.1,1.6,72,0.00,,,0.00,WUHU216HW,2013-02-14 11:58:00,
2013-02-14 06:03:00,36.4,28.5,29.51,SE,135,1.1,2.2,73,0.00,,,0.00,WUHU216HW,2013-02-14 12:03:00,
2013-02-14 06:08:00,36.0,28.2,29.51,ESE,113,0.9,2.2,73,0.00,,,0.00,WUHU216HW,2013-02-14 12:08:00,
2013-02-14 06:13:00,35.8,28.0,29.51,ENE,68,1.1,1.3,73,0.00,,,0.00,WUHU216HW,2013-02-14 12:13:00,
2013-02-14 06:18:00,35.8,28.0,29.51,ESE,113,1.8,1.8,73,0.00,,,0.00,WUHU216HW,2013-02-14 12:18:00,
2013-02-14 06:23:00,35.8,28.0,29.51,NE,45,1.1,1.8,73,0.00,,,0.00,WUHU216HW,2013-02-14 12:23:00,
2013-02-14 06:28:00,35.6,27.8,29.51,SE,135,1.1,1.6,73,0.00,,,0.00,WUHU216HW,2013-02-14 12:28:00,
2013-02-14 06:33:00,35.6,27.8,29.51,SE,135,1.8,1.8,73,0.00,,,0.00,WUHU216HW,2013-02-14 12:33:00,
2013-02-14 06:39:00,35.6,27.8,29.52,ESE,113,2.0,2.0,73,0.00,,,0.00,WUHU216HW,2013-02-14 12:39:00,
2013-02-14 06:44:00,35.6,27.8,29.51,ESE,113,0.9,2.0,73,0.00,,,0.00,WUHU216HW,2013-02-14 12:44:00,
2013-02-14 06:49:00,35.6,28.1,29.52,ESE,113,0.9,1.8,74,0.00,,,0.00,WUHU216HW,2013-02-14 12:49:00,
2013-02-14 06:54:00,35.6,28.1,29.52,SE,135,0.9,1.8,74,0.00,,,0.00,WUHU216HW,2013-02-14 12:54:00,
2013-02-14 06:59:00,35.6,28.1,29.52,SE,135,0.9,1.1,74,0.00,,,0.00,WUHU216HW,2013-02-14 12:59:00,
2013-02-14 07:04:00,35.8,28.3,29.52,ESE,113,0.4,1.3,74,0.00,,,0.00,WUHU216HW,2013-02-14 13:04:00,
2013-02-14 07:09:00,36.0,28.4,29.52,ESE,113,0.4,1.3,74,0.00,,,0.00,WUHU216HW,2013-02-14 13:09:00,
2013-02-14 07:14:00,35.6,28.1,29.52,ESE,113,0.4,1.1,74,0.00,,,0.00,WUHU216HW,2013-02-14 13:14:00,
2013-02-14 07:19:00,35.8,28.3,29.52,ESE,113,0.4,0.7,74,0.00,,,0.00,WUHU216HW,2013-02-14 13:19:00,
2013-02-14 07:24:00,35.8,28.6,29.52,ESE,113,0.7,1.1,75,0.00,,,0.00,WUHU216HW,2013-02-14 13:24:00,
2013-02-14 07:30:00,36.0,28.4,29.52,ESE,113,0.7,1.1,74,0.00,,,0.00,WUHU216HW,2013-02-14 13:30:00,
2013-02-14 07:35:00,35.8,28.6,29.52,SE,135,0.9,1.6,75,0.00,,,0.00,WUHU216HW,2013-02-14 13:35:00,
2013-02-14 07:40:00,35.8,29.0,29.52,SE,135,0.9,1.6,76,0.00,,,0.00,WUHU216HW,2013-02-14 13:40:00,
2013-02-14 07:45:00,35.6,28.4,29.53,SE,135,0.9,1.6,75,0.00,,,0.00,WUHU216HW,2013-02-14 13:45:00,
2013-02-14 07:50:00,35.8,29.0,29.53,ESE,113,0.9,1.3,76,0.00,,,0.00,WUHU216HW,2013-02-14 13:50:00,
2013-02-14 07:55:00,36.2,29.4,29.53,ESE,113,0.4,1.6,76,0.00,,,0.00,WUHU216HW,2013-02-14 13:55:00,
2013-02-14 08:00:00,36.4,29.5,29.53,East,90,0.4,1.1,76,0.00,,,0.00,WUHU216HW,2013-02-14 14:00:00,
2013-02-14 08:05:00,36.5,30.0,29.52,ENE,68,0.2,1.1,77,0.00,,,0.00,WUHU216HW,2013-02-14 14:05:00,
2013-02-14 08:10:00,36.7,30.2,29.53,SE,135,0.4,1.1,77,0.00,,,0.00,WUHU216HW,2013-02-14 14:10:00,
2013-02-14 08:15:00,37.1,30.5,29.53,ENE,68,0.9,1.6,77,0.00,,,0.00,WUHU216HW,2013-02-14 14:15:00,
2013-02-14 08:20:00,37.3,30.7,29.53,NE,45,1.1,1.6,77,0.00,,,0.00,WUHU216HW,2013-02-14 14:20:00,
2013-02-14 08:25:00,37.6,31.1,29.53,NNE,23,0.4,1.1,77,0.00,,,0.00,WUHU216HW,2013-02-14 14:25:00,
2013-02-14 08:31:00,38.0,31.4,29.54,North,0,0.0,1.1,77,0.00,,,0.00,WUHU216HW,2013-02-14 14:31:00,
2013-02-14 08:36:00,38.3,31.4,29.54,NNE,23,0.0,0.9,76,0.00,,,0.00,WUHU216HW,2013-02-14 14:36:00,
2013-02-14 08:41:00,38.9,32.3,29.54,NW,315,0.0,0.0,77,0.00,,,0.00,WUHU216HW,2013-02-14 14:41:00,
2013-02-14 08:46:00,39.2,32.7,29.54,ESE,113,0.0,0.2,77,0.00,,,0.00,WUHU216HW,2013-02-14 14:46:00,
2013-02-14 08:51:00,40.0,33.3,29.54,North,0,0.0,0.2,77,0.00,,,0.00,WUHU216HW,2013-02-14 14:51:00,
2013-02-14 08:56:00,40.7,33.9,29.54,NE,45,0.0,0.2,77,0.00,,,0.00,WUHU216HW,2013-02-14 14:56:00,
2013-02-14 09:01:00,41.4,34.4,29.55,NW,315,0.0,0.2,76,0.00,,,0.00,WUHU216HW,2013-02-14 15:01:00,
2013-02-14 09:06:00,42.5,35.5,29.55,West,270,0.7,0.9,76,0.00,,,0.00,WUHU216HW,2013-02-14 15:06:00,
2013-02-14 09:11:00,43.7,36.3,29.55,WSW,248,2.9,2.9,75,0.00,,,0.00,WUHU216HW,2013-02-14 15:11:00,
2013-02-14 09:16:00,45.0,37.2,29.55,WSW,248,1.6,2.9,74,0.00,,,0.00,WUHU216HW,2013-02-14 15:16:00,
2013-02-14 09:21:00,46.1,37.9,29.55,SSW,203,3.6,3.6,73,0.00,,,0.00,WUHU216HW,2013-02-14 15:21:00,
2013-02-14 09:26:00,47.0,38.4,29.55,SW,225,3.1,3.8,72,0.00,,,0.00,WUHU216HW,2013-02-14 15:26:00,
2013-02-14 09:31:00,47.7,38.7,29.55,SSW,203,3.4,3.8,71,0.00,,,0.00,WUHU216HW,2013-02-14 15:31:00,
2013-02-14 09:36:00,48.4,38.7,29.55,SW,225,4.9,4.9,69,0.00,,,0.00,WUHU216HW,2013-02-14 15:36:00,
2013-02-14 09:41:00,49.0,38.8,29.55,WSW,248,3.4,4.9,68,0.00,,,0.00,WUHU216HW,2013-02-14 15:41:00,
2013-02-14 09:47:00,49.5,39.3,29.55,SW,225,1.8,3.6,68,0.00,,,0.00,WUHU216HW,2013-02-14 15:47:00,
2013-02-14 09:52:00,50.0,39.5,29.55,WSW,248,3.4,4.3,67,0.00,,,0.00,WUHU216HW,2013-02-14 15:52:00,
2013-02-14 09:57:00,50.8,39.8,29.55,WSW,248,3.4,5.4,66,0.00,,,0.00,WUHU216HW,2013-02-14 15:57:00,
2013-02-14 10:02:00,51.5,40.5,29.55,West,270,4.0,5.6,66,0.00,,,0.00,WUHU216HW,2013-02-14 16:02:00,
2013-02-14 10:07:00,52.0,40.1,29.55,WSW,248,1.8,5.6,64,0.00,,,0.00,WUHU216HW,2013-02-14 16:07:00,
2013-02-14 10:12:00,52.6,40.7,29.55,NW,315,2.0,4.9,64,0.00,,,0.00,WUHU216HW,2013-02-14 16:12:00,
2013-02-14 10:17:00,53.1,40.8,29.55,WSW,248,7.8,7.8,63,0.00,,,0.00,WUHU216HW,2013-02-14 16:17:00,
2013-02-14 10:22:00,53.6,40.5,29.55,WSW,248,2.7,7.8,61,0.00,,,0.00,WUHU216HW,2013-02-14 16:22:00,
2013-02-14 10:27:00,54.4,40.8,29.55,South,180,4.9,6.5,60,0.00,,,0.00,WUHU216HW,2013-02-14 16:27:00,
2013-02-14 10:32:00,54.9,40.8,29.55,West,270,4.0,6.9,59,0.00,,,0.00,WUHU216HW,2013-02-14 16:32:00,
2013-02-14 10:37:00,55.4,40.9,29.55,SW,225,3.6,6.9,58,0.00,,,0.00,WUHU216HW,2013-02-14 16:37:00,
2013-02-14 10:42:00,56.0,40.9,29.55,NW,315,2.9,6.5,57,0.00,,,0.00,WUHU216HW,2013-02-14 16:42:00,
2013-02-14 10:47:00,56.5,41.0,29.55,SW,225,2.9,6.7,56,0.00,,,0.00,WUHU216HW,2013-02-14 16:47:00,
2013-02-14 10:52:00,56.9,40.9,29.55,SW,225,5.4,6.7,55,0.00,,,0.00,WUHU216HW,2013-02-14 16:52:00,
2013-02-14 10:57:00,57.2,40.3,29.54,West,270,4.5,6.9,53,0.00,,,0.00,WUHU216HW,2013-02-14 16:57:00,
2013-02-14 11:02:00,57.4,41.0,29.54,SW,225,2.0,7.8,54,0.00,,,0.00,WUHU216HW,2013-02-14 17:02:00,
2013-02-14 11:07:00,58.0,40.0,29.54,WSW,248,5.6,7.8,51,0.00,,,0.00,WUHU216HW,2013-02-14 17:07:00,
2013-02-14 11:12:00,58.0,41.0,29.54,SW,225,2.9,6.3,53,0.00,,,0.00,WUHU216HW,2013-02-14 17:12:00,
2013-02-14 11:17:00,58.5,41.4,29.54,WSW,248,6.3,6.3,53,0.00,,,0.00,WUHU216HW,2013-02-14 17:17:00,
2013-02-14 11:22:00,59.0,41.4,29.54,SW,225,6.3,7.8,52,0.00,,,0.00,WUHU216HW,2013-02-14 17:22:00,
2013-02-14 11:28:00,59.6,41.5,29.54,SSW,203,4.5,7.8,51,0.00,,,0.00,WUHU216HW,2013-02-14 17:28:00,
2013-02-14 11:33:00,59.9,41.8,29.54,WSW,248,3.8,9.8,51,0.00,,,0.00,WUHU216HW,2013-02-14 17:33:00,
2013-02-14 11:38:00,60.1,40.3,29.54,WSW,248,7.8,9.8,48,0.00,,,0.00,WUHU216HW,2013-02-14 17:38:00,
2013-02-14 11:43:00,60.5,41.2,29.54,SW,225,3.1,7.8,49,0.00,,,0.00,WUHU216HW,2013-02-14 17:43:00,
2013-02-14 11:48:00,60.8,41.6,29.54,SSE,158,8.1,8.1,49,0.00,,,0.00,WUHU216HW,2013-02-14 17:48:00,
2013-02-14 11:53:00,61.2,41.9,29.53,ESE,113,4.7,8.1,49,0.00,,,0.00,WUHU216HW,2013-02-14 17:53:00,
2013-02-14 11:58:00,61.6,41.0,29.53,WSW,248,3.1,6.7,47,0.00,,,0.00,WUHU216HW,2013-02-14 17:58:00,
2013-02-14 12:03:00,61.6,39.9,29.53,SSW,203,4.7,4.7,45,0.00,,,0.00,WUHU216HW,2013-02-14 18:03:00,
2013-02-14 12:08:00,61.7,40.1,29.53,South,180,10.1,10.1,45,0.00,,,0.00,WUHU216HW,2013-02-14 18:08:00,
2013-02-14 12:13:00,62.1,41.0,29.52,SSW,203,3.8,10.1,46,0.00,,,0.00,WUHU216HW,2013-02-14 18:13:00,
2013-02-14 12:18:00,62.6,41.4,29.52,South,180,2.2,5.6,46,0.00,,,0.00,WUHU216HW,2013-02-14 18:18:00,
2013-02-14 12:23:00,62.8,41.1,29.52,SE,135,6.3,9.2,45,0.00,,,0.00,WUHU216HW,2013-02-14 18:23:00,
2013-02-14 12:28:00,63.0,41.2,29.52,South,180,4.0,9.2,45,0.00,,,0.00,WUHU216HW,2013-02-14 18:28:00,
2013-02-14 12:33:00,63.4,41.0,29.52,WSW,248,7.2,7.8,44,0.00,,,0.00,WUHU216HW,2013-02-14 18:33:00,
2013-02-14 12:38:00,63.2,39.6,29.51,WSW,248,3.1,7.8,42,0.00,,,0.00,WUHU216HW,2013-02-14 18:38:00,
2013-02-14 12:44:00,63.4,41.0,29.51,NW,315,1.8,6.3,44,0.00,,,0.00,WUHU216HW,2013-02-14 18:44:00,
2013-02-14 12:49:00,63.4,39.3,29.50,West,270,4.9,7.2,41,0.00,,,0.00,WUHU216HW,2013-02-14 18:49:00,
2013-02-14 12:54:00,63.5,40.5,29.50,SW,225,2.9,7.6,43,0.00,,,0.00,WUHU216HW,2013-02-14 18:54:00,
2013-02-14 12:59:00,63.7,40.7,29.50,West,270,2.5,7.6,43,0.00,,,0.00,WUHU216HW,2013-02-14 18:59:00,
2013-02-14 13:04:00,63.9,40.9,29.50,SW,225,3.4,5.8,43,0.00,,,0.00,WUHU216HW,2013-02-14 19:04:00,
2013-02-14 13:09:00,64.4,41.3,29.50,WSW,248,4.7,6.0,43,0.00,,,0.00,WUHU216HW,2013-02-14 19:09:00,
2013-02-14 13:14:00,64.6,40.3,29.49,WSW,248,3.4,6.5,41,0.00,,,0.00,WUHU216HW,2013-02-14 19:14:00,
2013-02-14 13:19:00,64.8,41.0,29.49,WSW,248,4.7,6.5,42,0.00,,,0.00,WUHU216HW,2013-02-14 19:19:00,
2013-02-14 13:24:00,65.0,41.2,29.48,SW,225,6.9,8.5,42,0.00,,,0.00,WUHU216HW,2013-02-14 19:24:00,
2013-02-14 13:29:00,65.2,41.4,29.48,SSW,203,2.2,8.5,42,0.00,,,0.00,WUHU216HW,2013-02-14 19:29:00,
2013-02-14 13:34:00,65.5,41.1,29.48,SW,225,5.8,8.9,41,0.00,,,0.00,WUHU216HW,2013-02-14 19:34:00,
2013-02-14 13:39:00,65.7,40.1,29.47,WSW,248,6.0,8.9,39,0.00,,,0.00,WUHU216HW,2013-02-14 19:39:00,
2013-02-14 13:44:00,65.9,40.1,29.47,SW,225,4.5,7.6,39,0.00,,,0.00,WUHU216HW,2013-02-14 19:44:00,
2013-02-14 13:49:00,65.9,40.9,29.47,WSW,248,0.9,7.6,40,0.00,,,0.00,WUHU216HW,2013-02-14 19:49:00,
2013-02-14 13:54:00,66.2,40.5,29.47,SSW,203,5.4,6.3,39,0.00,,,0.00,WUHU216HW,2013-02-14 19:54:00,
2013-02-14 13:59:00,66.2,40.5,29.46,SW,225,6.3,6.7,39,0.00,,,0.00,WUHU216HW,2013-02-14 19:59:00,
2013-02-14 14:04:00,66.4,40.7,29.46,SSW,203,2.0,6.7,39,0.00,,,0.00,WUHU216HW,2013-02-14 20:04:00,
2013-02-14 14:09:00,66.8,41.0,29.45,SSE,158,4.7,6.3,39,0.00,,,0.00,WUHU216HW,2013-02-14 20:09:00,
2013-02-14 14:14:00,67.0,41.1,29.45,WSW,248,7.6,11.6,39,0.00,,,0.00,WUHU216HW,2013-02-14 20:14:00,
2013-02-14 14:19:00,67.0,40.4,29.45,SSW,203,2.7,11.6,38,0.00,,,0.00,WUHU216HW,2013-02-14 20:19:00,
2013-02-14 14:24:00,67.1,41.3,29.45,SSE,158,6.3,8.7,39,0.00,,,0.00,WUHU216HW,2013-02-14 20:24:00,
2013-02-14 14:30:00,67.3,40.8,29.44,SSW,203,3.4,7.4,38,0.00,,,0.00,WUHU216HW,2013-02-14 20:30:00,
2013-02-14 14:35:00,67.3,40.8,29.44,South,180,4.3,7.6,38,0.00,,,0.00,WUHU216HW,2013-02-14 20:35:00,
2013-02-14 14:40:00,67.3,40.8,29.43,SSE,158,2.5,7.6,38,0.00,,,0.00,WUHU216HW,2013-02-14 20:40:00,
2013-02-14 14:45:00,67.5,40.9,29.43,WSW,248,3.4,6.9,38,0.00,,,0.00,WUHU216HW,2013-02-14 20:45:00,
2013-02-14 14:50:00,67.7,41.0,29.43,WSW,248,6.9,6.9,38,0.00,,,0.00,WUHU216HW,2013-02-14 20:50:00,
2013-02-14 14:55:00,68.0,40.6,29.43,WSW,248,8.5,8.5,37,0.00,,,0.00,WUHU216HW,2013-02-14 20:55:00,
2013-02-14 15:00:00,68.0,40.6,29.43,SSW,203,5.4,8.5,37,0.00,,,0.00,WUHU216HW,2013-02-14 21:00:00,
2013-02-14 15:05:00,68.2,41.5,29.43,South,180,1.3,7.2,38,0.00,,,0.00,WUHU216HW,2013-02-14 21:05:00,
2013-02-14 15:10:00,68.2,41.5,29.42,SSW,203,4.9,4.9,38,0.00,,,0.00,WUHU216HW,2013-02-14 21:10:00,
2013-02-14 15:15:00,68.4,41.0,29.42,SW,225,5.1,7.8,37,0.00,,,0.00,WUHU216HW,2013-02-14 21:15:00,
2013-02-14 15:20:00,68.4,41.0,29.42,SW,225,2.0,7.8,37,0.00,,,0.00,WUHU216HW,2013-02-14 21:20:00,
2013-02-14 15:25:00,68.4,41.0,29.42,South,180,7.4,7.4,37,0.00,,,0.00,WUHU216HW,2013-02-14 21:25:00,
2013-02-14 15:30:00,68.6,41.1,29.42,WSW,248,3.4,7.4,37,0.00,,,0.00,WUHU216HW,2013-02-14 21:30:00,
2013-02-14 15:35:00,68.8,41.3,29.42,SSW,203,4.9,6.9,37,0.00,,,0.00,WUHU216HW,2013-02-14 21:35:00,
2013-02-14 15:40:00,68.9,41.4,29.42,WSW,248,2.7,7.4,37,0.00,,,0.00,WUHU216HW,2013-02-14 21:40:00,
2013-02-14 15:45:00,68.9,41.4,29.41,SSE,158,6.0,7.4,37,0.00,,,0.00,WUHU216HW,2013-02-14 21:45:00,
2013-02-14 15:50:00,68.8,41.3,29.42,SW,225,4.3,7.6,37,0.00,,,0.00,WUHU216HW,2013-02-14 21:50:00,
2013-02-14 15:55:00,68.8,40.5,29.42,WSW,248,7.6,7.6,36,0.00,,,0.00,WUHU216HW,2013-02-14 21:55:00,
2013-02-14 16:00:00,68.8,41.3,29.42,South,180,4.7,7.6,37,0.00,,,0.00,WUHU216HW,2013-02-14 22:00:00,
2013-02-14 16:05:00,68.8,40.5,29.42,SE,135,5.4,8.5,36,0.00,,,0.00,WUHU216HW,2013-02-14 22:05:00,
2013-02-14 16:10:00,68.8,39.1,29.42,WSW,248,2.7,8.5,34,0.00,,,0.00,WUHU216HW,2013-02-14 22:10:00,
2013-02-14 16:15:00,68.8,41.3,29.42,SSE,158,5.1,5.8,37,0.00,,,0.00,WUHU216HW,2013-02-14 22:15:00,
2013-02-14 16:20:00,68.8,41.3,29.42,ESE,113,4.0,5.1,37,0.00,,,0.00,WUHU216HW,2013-02-14 22:20:00,
2013-02-14 16:25:00,68.8,41.3,29.42,SSW,203,4.5,6.0,37,0.00,,,0.00,WUHU216HW,2013-02-14 22:25:00,
2013-02-14 16:31:00,68.8,41.3,29.42,South,180,2.9,6.5,37,0.00,,,0.00,WUHU216HW,2013-02-14 22:31:00,
2013-02-14 16:36:00,68.8,40.5,29.42,SSW,203,6.7,9.6,36,0.00,,,0.00,WUHU216HW,2013-02-14 22:36:00,
2013-02-14 16:41:00,68.6,41.1,29.42,South,180,9.6,9.6,37,0.00,,,0.00,WUHU216HW,2013-02-14 22:41:00,
2013-02-14 16:46:00,68.4,39.5,29.42,SE,135,7.6,9.6,35,0.00,,,0.00,WUHU216HW,2013-02-14 22:46:00,
2013-02-14 16:51:00,68.2,40.8,29.42,SSW,203,3.6,7.6,37,0.00,,,0.00,WUHU216HW,2013-02-14 22:51:00,
2013-02-14 16:56:00,68.2,40.8,29.42,SSE,158,1.3,5.4,37,0.00,,,0.00,WUHU216HW,2013-02-14 22:56:00,
2013-02-14 17:01:00,68.0,39.9,29.42,South,180,9.2,9.2,36,0.00,,,0.00,WUHU216HW,2013-02-14 23:01:00,
2013-02-14 17:06:00,67.9,40.5,29.42,SW,225,2.2,9.2,37,0.00,,,0.00,WUHU216HW,2013-02-14 23:06:00,
2013-02-14 17:11:00,67.7,40.3,29.42,South,180,7.6,7.6,37,0.00,,,0.00,WUHU216HW,2013-02-14 23:11:00,
2013-02-14 17:16:00,67.5,40.1,29.42,South,180,5.4,7.6,37,0.00,,,0.00,WUHU216HW,2013-02-14 23:16:00,
2013-02-14 17:21:00,67.3,40.8,29.42,SE,135,3.4,5.4,38,0.00,,,0.00,WUHU216HW,2013-02-14 23:21:00,
2013-02-14 17:26:00,67.1,40.6,29.42,SW,225,2.2,5.6,38,0.00,,,0.00,WUHU216HW,2013-02-14 23:26:00,
2013-02-14 17:31:00,67.1,40.6,29.42,SSW,203,4.0,5.6,38,0.00,,,0.00,WUHU216HW,2013-02-14 23:31:00,
2013-02-14 17:36:00,66.8,39.5,29.42,WSW,248,1.6,6.5,37,0.00,,,0.00,WUHU216HW,2013-02-14 23:36:00,
2013-02-14 17:42:00,66.6,39.3,29.42,South,180,2.7,6.9,37,0.00,,,0.00,WUHU216HW,2013-02-14 23:42:00,
2013-02-14 17:47:00,66.2,39.1,29.42,South,180,5.6,6.9,37,0.00,,,0.00,WUHU216HW,2013-02-14 23:47:00,
2013-02-14 17:52:00,65.9,39.4,29.42,SSW,203,5.1,5.6,38,0.00,,,0.00,WUHU216HW,2013-02-14 23:52:00,
2013-02-14 17:57:00,65.7,39.3,29.42,SSW,203,2.7,5.4,38,0.00,,,0.00,WUHU216HW,2013-02-14 23:57:00,
2013-02-14 18:02:00,65.3,39.0,29.42,SSE,158,1.1,5.4,38,0.00,,,0.00,WUHU216HW,2013-02-15 00:02:00,
2013-02-14 18:07:00,65.0,38.6,29.42,SSW,203,3.8,3.8,38,0.00,,,0.00,WUHU216HW,2013-02-15 00:07:00,
2013-02-14 18:12:00,64.6,39.1,29.42,South,180,1.1,6.3,39,0.00,,,0.00,WUHU216HW,2013-02-15 00:12:00,
2013-02-14 18:17:00,64.1,38.5,29.43,SSE,158,4.7,6.3,39,0.00,,,0.00,WUHU216HW,2013-02-15 00:17:00,
2013-02-14 18:22:00,63.7,38.3,29.43,SE,135,2.5,5.8,39,0.00,,,0.00,WUHU216HW,2013-02-15 00:22:00,
2013-02-14 18:27:00,63.4,38.6,29.43,SW,225,5.1,5.8,40,0.00,,,0.00,WUHU216HW,2013-02-15 00:27:00,
2013-02-14 18:32:00,63.0,38.4,29.44,SSE,158,3.1,5.4,40,0.00,,,0.00,WUHU216HW,2013-02-15 00:32:00,
2013-02-14 18:37:00,62.6,38.5,29.43,SSE,158,4.0,5.1,41,0.00,,,0.00,WUHU216HW,2013-02-15 00:37:00,
2013-02-14 18:42:00,62.3,38.3,29.43,SE,135,3.4,4.0,41,0.00,,,0.00,WUHU216HW,2013-02-15 00:42:00,
2013-02-14 18:47:00,61.9,37.9,29.43,SSE,158,3.4,4.3,41,0.00,,,0.00,WUHU216HW,2013-02-15 00:47:00,
2013-02-14 18:52:00,61.6,38.2,29.43,SE,135,2.5,4.3,42,0.00,,,0.00,WUHU216HW,2013-02-15 00:52:00,
2013-02-14 18:57:00,61.4,38.0,29.43,SSE,158,2.2,3.6,42,0.00,,,0.00,WUHU216HW,2013-02-15 00:57:00,
2013-02-14 19:03:00,61.2,38.4,29.43,SSE,158,2.5,4.0,43,0.00,,,0.00,WUHU216HW,2013-02-15 01:03:00,
2013-02-14 19:08:00,60.8,38.1,29.43,SSE,158,2.5,4.0,43,0.00,,,0.00,WUHU216HW,2013-02-15 01:08:00,
2013-02-14 19:13:00,60.5,37.8,29.43,South,180,2.5,2.9,43,0.00,,,0.00,WUHU216HW,2013-02-15 01:13:00,
2013-02-14 19:18:00,60.3,37.6,29.43,SE,135,2.9,3.4,43,0.00,,,0.00,WUHU216HW,2013-02-15 01:18:00,
2013-02-14 19:23:00,59.9,37.9,29.44,South,180,2.5,3.4,44,0.00,,,0.00,WUHU216HW,2013-02-15 01:23:00,
2013-02-14 19:28:00,59.8,37.7,29.43,SE,135,2.5,2.9,44,0.00,,,0.00,WUHU216HW,2013-02-15 01:28:00,
2013-02-14 19:33:00,59.4,37.4,29.43,SSE,158,2.5,3.4,44,0.00,,,0.00,WUHU216HW,2013-02-15 01:33:00,
2013-02-14 19:38:00,59.4,37.4,29.43,SE,135,2.2,3.4,44,0.00,,,0.00,WUHU216HW,2013-02-15 01:38:00,
2013-02-14 19:43:00,59.2,37.2,29.43,SE,135,2.7,3.4,44,0.00,,,0.00,WUHU216HW,2013-02-15 01:43:00,
2013-02-14 19:48:00,59.0,37.6,29.43,SE,135,1.8,3.8,45,0.00,,,0.00,WUHU216HW,2013-02-15 01:48:00,
2013-02-14 19:53:00,58.9,37.4,29.43,South,180,2.5,3.8,45,0.00,,,0.00,WUHU216HW,2013-02-15 01:53:00,
2013-02-14 19:58:00,58.7,37.3,29.43,ESE,113,1.3,2.7,45,0.00,,,0.00,WUHU216HW,2013-02-15 01:58:00,
2013-02-14 20:03:00,58.7,37.3,29.43,SE,135,1.8,2.9,45,0.00,,,0.00,WUHU216HW,2013-02-15 02:03:00,
2013-02-14 20:08:00,58.3,37.0,29.43,SSW,203,1.8,2.9,45,0.00,,,0.00,WUHU216HW,2013-02-15 02:08:00,
2013-02-14 20:13:00,58.1,37.4,29.43,SE,135,2.0,2.5,46,0.00,,,0.00,WUHU216HW,2013-02-15 02:13:00,
2013-02-14 20:18:00,58.0,37.3,29.44,ESE,113,1.8,2.5,46,0.00,,,0.00,WUHU216HW,2013-02-15 02:18:00,
2013-02-14 20:23:00,57.8,37.1,29.44,SE,135,1.8,2.5,46,0.00,,,0.00,WUHU216HW,2013-02-15 02:23:00,
2013-02-14 20:28:00,57.6,36.9,29.44,WSW,248,0.9,1.8,46,0.00,,,0.00,WUHU216HW,2013-02-15 02:28:00,
2013-02-14 20:33:00,57.4,36.7,29.45,SE,135,1.1,1.8,46,0.00,,,0.00,WUHU216HW,2013-02-15 02:33:00,
2013-02-14 20:38:00,57.1,36.4,29.45,SE,135,1.1,1.8,46,0.00,,,0.00,WUHU216HW,2013-02-15 02:38:00,
2013-02-14 20:44:00,56.9,36.3,29.45,ESE,113,2.2,2.2,46,0.00,,,0.00,WUHU216HW,2013-02-15 02:44:00,
2013-02-14 20:49:00,56.7,36.6,29.45,SW,225,1.8,2.2,47,0.00,,,0.00,WUHU216HW,2013-02-15 02:49:00,
2013-02-14 20:54:00,56.5,36.5,29.44,SSE,158,1.8,1.8,47,0.00,,,0.00,WUHU216HW,2013-02-15 02:54:00,
2013-02-14 20:59:00,56.3,36.3,29.44,ESE,113,1.6,2.5,47,0.00,,,0.00,WUHU216HW,2013-02-15 02:59:00,
2013-02-14 21:04:00,56.2,36.1,29.45,SSE,158,1.1,2.5,47,0.00,,,0.00,WUHU216HW,2013-02-15 03:04:00,
2013-02-14 21:09:00,56.2,36.1,29.45,SE,135,0.9,1.8,47,0.00,,,0.00,WUHU216HW,2013-02-15 03:09:00,
2013-02-14 21:14:00,55.8,35.7,29.45,ESE,113,1.1,1.8,47,0.00,,,0.00,WUHU216HW,2013-02-15 03:14:00,
2013-02-14 21:19:00,55.8,35.7,29.45,SE,135,1.1,1.8,47,0.00,,,0.00,WUHU216HW,2013-02-15 03:19:00,
2013-02-14 21:24:00,55.4,36.0,29.45,ESE,113,0.9,2.0,48,0.00,,,0.00,WUHU216HW,2013-02-15 03:24:00,
2013-02-14 21:29:00,55.4,36.0,29.45,SE,135,1.6,2.0,48,0.00,,,0.00,WUHU216HW,2013-02-15 03:29:00,
2013-02-14 21:34:00,55.3,35.8,29.45,South,180,1.8,2.2,48,0.00,,,0.00,WUHU216HW,2013-02-15 03:34:00,
2013-02-14 21:39:00,55.3,36.4,29.45,SSE,158,4.9,4.9,49,0.00,,,0.00,WUHU216HW,2013-02-15 03:39:00,
2013-02-14 21:44:00,55.6,37.3,29.46,SE,135,5.4,7.2,50,0.00,,,0.00,WUHU216HW,2013-02-15 03:44:00,
2013-02-14 21:49:00,56.0,37.1,29.47,SE,135,3.4,7.2,49,0.00,,,0.00,WUHU216HW,2013-02-15 03:49:00,
2013-02-14 21:54:00,56.0,37.6,29.47,SSE,158,4.7,7.2,50,0.00,,,0.00,WUHU216HW,2013-02-15 03:54:00,
2013-02-14 21:59:00,56.0,37.6,29.47,SSE,158,9.2,9.2,50,0.00,,,0.00,WUHU216HW,2013-02-15 03:59:00,
2013-02-14 22:04:00,55.8,37.4,29.47,SE,135,3.4,13.4,50,0.00,,,0.00,WUHU216HW,2013-02-15 04:04:00,
2013-02-14 22:09:00,55.6,37.7,29.47,SSE,158,2.9,13.4,51,0.00,,,0.00,WUHU216HW,2013-02-15 04:09:00,
2013-02-14 22:14:00,55.4,37.5,29.47,ESE,113,2.7,6.3,51,0.00,,,0.00,WUHU216HW,2013-02-15 04:14:00,
2013-02-14 22:19:00,55.1,37.3,29.47,SSW,203,5.6,6.3,51,0.00,,,0.00,WUHU216HW,2013-02-15 04:19:00,
2013-02-14 22:24:00,54.9,37.1,29.47,ESE,113,2.9,5.6,51,0.00,,,0.00,WUHU216HW,2013-02-15 04:24:00,
2013-02-14 22:29:00,54.5,37.2,29.47,SSE,158,1.8,5.4,52,0.00,,,0.00,WUHU216HW,2013-02-15 04:29:00,
2013-02-14 22:34:00,54.2,36.9,29.47,South,180,3.6,5.1,52,0.00,,,0.00,WUHU216HW,2013-02-15 04:34:00,
2013-02-14 22:39:00,54.0,36.7,29.47,SSW,203,3.4,5.1,52,0.00,,,0.00,WUHU216HW,2013-02-15 04:39:00,
2013-02-14 22:44:00,53.8,37.0,29.47,SE,135,0.4,4.0,53,0.00,,,0.00,WUHU216HW,2013-02-15 04:44:00,
2013-02-14 22:49:00,53.6,36.9,29.47,SW,225,3.4,4.0,53,0.00,,,0.00,WUHU216HW,2013-02-15 04:49:00,
2013-02-14 22:55:00,53.3,36.6,29.48,SSW,203,1.1,3.4,53,0.00,,,0.00,WUHU216HW,2013-02-15 04:55:00,
2013-02-14 23:00:00,52.9,36.2,29.48,SSW,203,2.0,3.4,53,0.00,,,0.00,WUHU216HW,2013-02-15 05:00:00,
2013-02-14 23:05:00,52.7,36.5,29.48,SSE,158,0.7,2.7,54,0.00,,,0.00,WUHU216HW,2013-02-15 05:05:00,
2013-02-14 23:10:00,52.4,36.2,29.48,SE,135,0.4,2.7,54,0.00,,,0.00,WUHU216HW,2013-02-15 05:10:00,
2013-02-14 23:15:00,52.2,36.0,29.48,South,180,1.1,1.3,54,0.00,,,0.00,WUHU216HW,2013-02-15 05:15:00,
2013-02-14 23:20:00,51.8,36.1,29.48,SSE,158,1.1,1.1,55,0.00,,,0.00,WUHU216HW,2013-02-15 05:20:00,
2013-02-14 23:25:00,51.5,35.7,29.48,SE,135,2.7,2.7,55,0.00,,,0.00,WUHU216HW,2013-02-15 05:25:00,
2013-02-14 23:30:00,51.5,35.7,29.48,SE,135,1.6,2.7,55,0.00,,,0.00,WUHU216HW,2013-02-15 05:30:00,
2013-02-14 23:35:00,51.1,35.9,29.48,South,180,2.5,3.1,56,0.00,,,0.00,WUHU216HW,2013-02-15 05:35:00,
2013-02-14 23:40:00,51.1,35.9,29.48,SE,135,1.6,5.8,56,0.00,,,0.00,WUHU216HW,2013-02-15 05:40:00,
2013-02-14 23:45:00,50.9,35.7,29.48,SSE,158,1.8,5.8,56,0.00,,,0.00,WUHU216HW,2013-02-15 05:45:00,
2013-02-14 23:50:00,50.9,35.7,29.49,SSE,158,1.6,4.0,56,0.00,,,0.00,WUHU216HW,2013-02-15 05:50:00,
2013-02-14 23:55:00,50.8,36.0,29.49,South,180,0.7,4.0,57,0.00,,,0.00,WUHU216HW,2013-02-15 05:55:00,